User: anonymous   Login
Location: Unspecified
(0.0000°N, 0.0000°E)
Time: 17:08:59
(UTC+00:00)
Language:

MERIDIAN 7 - Orbit

View from above orbital plane
View from above orbital plane
View from above satellite
View from above satellite

Ground track
Ground track

The orbit data is extracted from the following two-line orbital elements,

1 40296U 14069A   24104.59650145 -.00000026  00000-0  00000+0 0  9995
2 40296  63.5848 303.1734 7040283 273.4599  15.3108  2.00622125 69284
Epoch (UTC): 13 April 2024 14:18:57
Eccentricity: 0.7040283
inclination: 63.5848°
perigee height: 1481 km
apogee height: 38872 km
right ascension of ascending node: 303.1734°
argument of perigee: 273.4599°
revolutions per day: 2.00622125
mean anomaly at epoch: 15.3108°
orbit number at epoch: 6928

The dashed part of the orbit path shows where the satellite is in the earth's shadow,  

DLR